Wind_Speed
13 14 15 15 15 14 13 12 11 10 9 8 7 6 6 7 9 9 9 9 9 9 9 8 8 8 7 7 7 7 8 9 8 6 6 5 5 4 4 4 4 5 5 6 6 6 7 8 8 9 9 10 10 11 13 14 15 15 16 17 18 19
14 15 15 15 14 13 12 12 11 10 10 9 7 6 7 9 9 9 9 10 10 10 9 9 8 8 8 8 7 8 9 9 9 8 6 6 6 6 5 5 5 5 6 7 7 8 9 9 10 11 11 12 12 13 15 16 17 18 18 19 19 20
15 15 14 13 12 12 12 12 12 11 10 9 7 7 8 10 10 10 10 9 10 10 10 9 9 9 9 9 8 7 8 9 10 9 8 7 7 7 7 7 6 6 7 7 8 9 10 11 12 13 13 14 14 15 16 17 19 20 20 20 21 22
13 13 12 12 12 12 13 13 12 11 10 9 8 8 10 10 10 10 10 10 9 10 10 10 10 10 9 9 7 7 7 8 9 9 8 8 7 7 8 8 8 8 8 8 8 9 10 11 12 13 15 15 16 17 17 18 19 20 21 21 22 23
11 11 11 11 12 13 13 12 12 11 10 9 8 9 11 11 11 11 10 10 9 9 10 10 10 10 9 8 7 6 6 7 8 8 8 8 8 7 8 8 9 9 9 9 9 10 10 11 12 13 15 16 16 17 17 18 19 19 20 21 22 23
10 10 11 12 12 12 11 12 11 11 10 9 10 10 11 11 11 11 10 9 9 9 10 10 10 10 8 7 7 6 6 5 6 7 7 6 7 7 7 8 9 9 9 9 10 10 11 11 12 13 14 15 16 16 17 18 19 19 20 21 22 24
11 11 11 10 10 10 10 11 12 12 11 11 11 11 11 12 12 11 9 9 9 9 9 9 9 8 8 7 7 7 6 4 5 6 6 5 5 6 6 7 8 8 8 8 9 10 10 11 11 12 13 14 16 17 17 18 19 20 21 22 23 24
12 12 11 9 9 9 10 10 11 11 11 12 12 11 11 12 11 10 8 8 8 8 8 8 8 8 8 7 7 7 6 4 4 5 6 5 4 4 4 5 6 7 7 7 8 8 9 10 11 12 13 14 16 16 17 18 19 20 21 22 23 24
13 12 11 10 9 8 9 9 9 10 11 12 12 11 12 12 10 9 9 8 8 7 7 7 7 8 8 7 7 7 6 5 4 5 6 6 5 4 4 4 5 6 7 7 8 8 9 10 11 11 12 13 14 15 16 18 19 20 20 21 22 22
13 12 11 9 8 7 8 8 9 10 11 12 12 12 12 12 11 10 9 8 7 6 6 6 6 7 7 7 6 6 6 5 4 4 5 6 5 5 4 4 5 6 6 7 8 9 9 10 11 12 12 13 14 15 15 16 17 18 19 20 21 21
11 10 10 8 7 7 7 8 9 11 12 13 13 13 13 12 11 10 8 7 6 5 5 5 5 5 5 6 5 5 5 5 4 4 4 4 4 5 5 5 5 6 7 7 8 9 9 10 11 12 12 13 13 14 14 15 17 18 18 19 19 20
10 10 10 9 8 8 8 9 11 12 14 14 13 13 13 11 10 9 8 6 5 6 5 4 4 3 4 5 4 3 3 3 3 3 3 3 3 3 4 5 6 6 7 7 8 9 10 11 11 11 11 11 12 13 14 15 16 16 17 17 18 19
11 11 10 10 9 8 9 11 12 14 15 15 14 13 12 11 10 9 8 7 7 6 4 3 3 3 2 2 2 2 2 1 2 3 3 4 4 4 4 5 6 6 7 7 8 9 9 9 9 8 9 10 12 14 15 15 16 16 17 17 19 20
13 12 10 10 9 9 11 13 14 15 15 14 13 12 11 11 11 9 8 7 7 5 3 2 3 2 1 1 1 2 2 2 3 4 5 5 5 5 5 5 6 6 6 7 7 7 7 7 8 8 10 11 13 15 15 16 17 17 18 19 20 21
14 12 11 10 9 10 13 14 15 16 15 13 12 12 12 12 11 9 8 7 6 4 2 1 1 2 1 1 2 2 3 4 5 5 6 6 6 6 6 6 6 5 5 5 5 5 6 7 9 10 12 13 15 15 16 17 18 18 19 20 21 22
15 13 12 11 10 12 14 15 16 16 15 13 12 12 12 12 11 9 8 7 6 4 2 1 1 2 1 2 2 3 4 5 6 7 7 7 6 6 6 6 5 5 4 3 3 4 5 8 10 11 12 13 14 15 16 17 18 19 19 20 22 23
14 13 13 12 12 13 14 14 15 15 14 13 12 12 12 12 10 9 8 7 6 5 3 2 2 2 2 2 3 4 4 5 6 7 7 7 6 6 5 4 4 4 3 3 3 4 6 9 10 11 11 12 13 14 15 16 18 19 21 22 23 25
14 14 14 14 14 14 15 14 15 15 14 13 13 13 12 11 11 10 9 8 7 5 3 3 3 3 3 3 3 4 5 6 6 7 7 7 6 5 5 5 4 3 3 3 3 5 8 9 10 10 11 11 12 14 15 17 19 21 23 24 25 26
17 16 15 15 15 15 15 15 15 15 14 14 14 13 12 12 11 10 9 8 6 5 4 4 4 4 4 4 5 5 6 6 6 6 6 6 6 5 5 4 3 2 2 3 4 6 8 10 10 11 12 12 13 15 17 19 21 22 24 25 26 27
19 17 15 15 15 15 15 15 14 15 15 14 14 13 13 12 12 10 9 8 6 6 5 4 5 4 4 5 5 6 6 6 6 5 5 5 5 5 5 4 3 2 2 3 4 6 8 10 10 11 12 13 15 16 18 20 21 23 24 25 26 27
18 15 15 16 16 15 15 14 15 15 15 15 15 14 13 12 11 10 9 8 7 6 5 5 5 4 4 5 5 6 6 5 4 4 4 4 5 5 5 5 5 4 4 4 5 6 8 9 10 10 12 14 16 17 19 20 22 24 25 26 27 28
18 16 17 17 17 16 16 16 16 16 15 15 15 15 14 13 11 11 10 8 7 5 5 5 5 4 5 5 5 5 5 4 3 3 3 4 5 6 6 7 7 7 7 7 7 8 9 10 11 12 13 15 17 18 19 21 22 24 25 26 27 28
18 18 19 19 18 18 17 17 17 16 15 16 17 16 15 13 12 11 10 8 7 5 5 6 5 5 5 5 5 5 5 4 4 4 4 5 6 7 8 9 9 9 9 9 9 9 9 10 11 12 14 16 18 19 20 21 22 24 25 26 27 28
19 20 21 20 19 18 17 17 18 17 15 16 17 16 15 14 13 11 9 8 6 5 6 6 6 6 6 6 6 6 5 5 5 5 6 7 8 9 10 11 11 11 11 11 11 10 10 11 12 13 15 17 18 19 20 22 23 24 25 26 27 28
21 23 22 19 17 16 15 16 18 16 15 16 15 15 15 14 13 11 8 7 6 6 6 7 7 7 6 6 6 7 6 6 6 7 8 9 9 10 11 12 12 13 13 13 12 12 12 12 13 15 16 18 18 19 20 21 22 24 25 27 28 28
23 24 20 17 16 15 15 16 16 15 14 14 14 14 15 13 12 10 7 7 7 7 7 7 7 7 7 7 7 7 7 8 8 8 9 10 11 12 13 13 13 14 14 14 14 14 14 14 15 16 17 18 19 19 20 21 22 23 24 26 28 29
24 22 18 16 16 15 16 16 15 15 14 14 14 14 14 13 11 9 8 8 8 7 7 7 8 8 8 7 7 8 8 9 9 10 11 12 13 14 14 14 14 14 14 15 15 15 15 16 16 17 18 18 19 20 21 22 22 23 23 24 26 28
21 17 15 16 16 16 16 15 16 17 17 16 15 14 14 13 11 9 8 8 8 7 6 7 7 8 8 8 8 8 9 10 11 12 13 14 15 15 15 15 15 15 15 16 16 16 16 16 17 17 18 18 19 20 21 22 23 24 24 23 22 23
18 15 16 16 15 16 16 17 18 18 17 16 14 14 13 13 11 10 10 8 8 7 6 7 8 8 8 8 9 10 10 12 13 14 15 15 16 16 16 17 16 16 16 16 16 16 16 16 17 17 18 19 20 21 23 24 25 25 25 24 22 20
18 16 18 18 16 17 17 17 17 17 16 15 14 14 13 13 12 12 11 9 9 8 7 8 9 9 9 10 10 11 12 13 14 15 16 17 17 17 18 18 17 17 17 16 16 15 16 16 17 18 19 20 21 23 23 24 24 24 24 23 22 21
19 17 18 19 18 18 18 17 16 17 17 15 14 14 14 13 13 12 13 12 11 10 9 10 10 11 12 12 13 13 14 15 16 16 17 17 18 18 18 18 18 17 17 16 15 15 16 16 17 18 19 21 22 23 23 23 23 23 22 22 22 22
18 16 17 17 16 17 18 17 17 18 17 15 14 14 13 13 12 13 14 14 12 12 12 12 13 14 14 15 15 16 16 16 17 17 17 17 18 19 19 18 17 17 16 15 15 15 16 16 17 19 20 21 22 23 23 23 23 23 22 22 23 24
17 17 17 15 15 16 17 17 18 19 18 15 13 12 12 13 14 14 15 15 15 14 14 15 15 15 16 16 17 17 17 17 17 17 17 18 19 19 18 18 17 16 15 15 15 16 16 17 19 20 21 22 23 23 23 23 23 23 23 23 23 24
18 18 16 15 15 16 16 17 19 20 16 13 13 13 13 14 14 15 15 16 17 16 17 17 16 17 17 17 17 17 17 17 17 17 18 19 19 18 17 16 16 15 15 15 15 16 17 19 20 21 23 23 23 23 23 22 22 22 23 24 24 25
17 16 14 13 15 15 16 18 19 17 13 12 13 13 14 14 14 16 16 17 18 18 18 18 17 17 17 17 17 17 17 17 17 18 18 18 17 17 16 16 15 15 15 15 16 17 18 20 21 23 23 24 24 23 23 22 22 23 24 25 26 27
15 14 13 14 15 15 17 18 18 15 13 13 14 14 14 14 14 15 16 17 18 19 19 18 17 17 17 17 17 17 17 17 17 17 17 17 16 16 15 15 15 15 15 16 17 18 19 21 22 23 24 24 24 23 23 23 23 25 26 27 28 29
15 15 15 16 16 16 17 18 17 16 15 14 13 13 13 13 13 14 15 17 18 18 17 17 17 17 16 17 17 17 17 16 16 15 15 15 15 15 15 14 15 15 15 16 17 19 21 22 23 24 24 24 24 23 23 24 25 26 27 28 29 30
Wind_Direction
208 214 220 226 232 239 245 250 252 254 255 256 253 246 250 258 261 259 258 257 256 259 262 267 272 272 271 272 276 280 282 282 281 277 273 268 262 263 268 274 279 280 279 274 272 274 275 278 281 284 286 289 293 296 299 300 301 301 301 301 302 303
207 213 219 225 230 237 243 247 247 248 248 247 244 240 246 253 255 256 256 258 260 265 269 272 276 277 277 279 279 282 284 281 279 275 271 270 266 262 260 264 272 278 283 285 288 291 294 297 298 298 297 297 298 300 301 303 304 305 305 306 307 308
208 213 220 225 230 235 238 241 241 240 240 239 237 235 243 249 252 255 256 258 263 269 273 275 278 280 283 285 286 288 288 282 276 272 266 263 262 261 263 263 265 270 277 283 290 296 301 303 304 303 303 302 302 301 302 303 304 305 307 310 311 311
210 215 221 227 231 234 236 238 238 237 237 234 231 233 241 247 251 253 254 257 263 269 273 277 282 284 287 290 292 293 293 287 278 271 264 258 256 257 263 267 267 269 271 276 283 288 294 298 300 302 302 303 303 302 303 303 303 305 307 309 310 309
210 215 223 229 234 236 238 239 240 240 236 230 227 233 240 245 249 250 252 256 260 266 272 279 286 287 290 291 290 291 293 292 283 274 264 255 251 252 258 265 268 271 275 278 280 283 286 290 294 297 299 301 302 303 305 305 305 306 307 308 307 306
203 210 220 228 234 238 241 241 241 239 232 225 224 231 239 243 246 248 251 256 258 265 273 280 286 288 290 290 288 286 285 288 287 279 272 262 254 253 256 262 269 273 277 280 282 284 286 288 292 296 299 301 304 306 307 308 309 309 309 308 307 306
196 202 212 221 229 234 236 239 238 233 225 220 222 228 235 240 243 248 253 256 261 268 276 282 286 289 288 288 287 283 280 283 287 286 285 278 267 261 261 266 272 275 278 281 283 285 286 289 294 298 302 304 306 308 309 310 310 309 308 307 306 304
190 193 200 207 218 225 229 234 234 229 222 219 222 227 232 238 243 248 251 254 261 268 276 286 289 289 285 282 282 280 282 287 290 297 300 296 290 284 281 283 283 281 281 282 284 286 288 292 296 300 302 304 305 306 307 306 305 304 303 302 302 301
187 189 192 198 207 218 224 228 229 224 219 221 223 226 231 237 240 242 245 248 256 265 275 286 288 287 285 283 280 282 289 296 300 304 308 309 309 309 304 300 295 291 289 290 291 290 292 295 296 298 298 300 300 299 298 297 297 298 299 300 302 305
187 192 194 200 206 212 220 221 221 216 217 221 221 223 228 232 235 237 240 246 254 264 273 275 275 280 288 292 290 295 304 311 315 308 308 310 311 311 308 302 295 292 293 294 295 294 296 297 297 297 297 296 294 293 294 296 299 302 304 308 310 313
194 200 204 212 213 210 217 217 211 211 216 219 218 221 225 229 233 234 236 239 243 248 257 262 263 275 298 308 306 313 322 321 317 310 304 302 303 304 301 298 294 295 296 296 296 296 295 293 291 291 292 293 294 297 302 307 310 312 314 315 317 318
201 209 214 218 216 209 213 212 205 207 214 217 217 220 224 229 232 231 230 225 226 236 244 264 281 295 327 328 321 330 336 324 311 304 293 279 275 276 277 281 284 286 287 288 287 284 283 283 284 287 293 299 305 311 316 318 320 321 321 321 322 322
206 212 216 218 216 209 209 206 204 208 214 217 217 220 224 228 231 230 224 220 226 234 241 281 300 311 350 339 320 326 327 315 288 272 265 261 260 259 261 267 271 274 276 280 282 282 283 283 286 294 305 314 318 322 325 327 328 329 329 328 327 326
208 213 216 217 217 210 206 205 206 212 217 218 218 219 221 223 228 227 220 224 230 229 244 295 303 305 321 302 304 313 303 292 277 268 267 273 281 283 283 283 287 291 294 297 295 295 296 293 300 313 322 326 328 331 332 333 334 334 333 331 329 327
212 217 219 218 217 210 205 207 211 216 219 219 218 218 218 222 227 227 225 230 228 223 239 288 325 327 320 294 300 305 288 281 278 280 286 291 298 301 303 306 308 311 312 310 305 304 304 304 313 323 329 331 334 335 335 336 336 335 333 330 327 324
218 225 226 221 216 211 209 211 215 219 221 219 217 216 217 223 228 230 227 220 212 202 184 202 334 352 345 312 311 305 287 282 284 288 294 298 303 306 311 316 322 327 327 320 312 306 304 307 315 323 328 332 335 336 336 336 334 332 330 327 324 321
221 227 229 223 217 215 213 214 218 222 223 220 217 218 221 226 232 228 215 201 197 194 186 231 298 323 339 337 327 312 297 291 291 294 298 300 302 309 320 333 346 351 348 336 317 309 306 308 317 324 329 334 336 336 335 333 332 330 328 325 322 319
225 228 228 223 218 216 215 217 221 223 224 220 217 220 223 226 229 219 202 193 195 200 214 254 280 295 316 327 317 308 299 294 294 297 300 304 312 325 344 2 14 11 352 334 311 306 307 311 321 328 332 336 336 336 335 333 332 330 328 325 322 319
227 226 225 222 218 216 217 220 222 225 224 220 218 219 221 223 222 212 199 196 200 210 231 260 279 289 304 310 309 306 301 300 302 304 306 313 327 340 354 9 19 8 329 312 300 300 303 309 320 327 330 334 335 336 335 333 331 329 327 325 322 320
230 225 221 221 218 216 219 221 223 226 225 221 219 216 217 218 214 208 206 207 210 221 239 273 291 294 302 304 306 306 304 306 308 310 313 322 336 345 351 357 359 342 310 298 297 296 298 304 312 320 325 329 332 333 333 332 330 328 326 324 323 321
234 228 222 219 216 216 220 222 225 226 223 220 215 211 214 215 209 209 214 215 220 230 254 288 295 296 302 303 305 309 311 315 318 320 323 329 338 342 342 343 339 329 319 308 303 299 298 302 307 314 321 327 329 330 332 331 328 326 325 324 323 322
230 223 218 216 212 212 216 219 222 222 218 214 209 208 210 209 208 212 215 218 227 239 268 285 289 296 301 306 311 315 317 321 326 328 329 330 334 335 333 332 327 321 317 312 307 304 302 302 306 313 320 325 326 327 328 327 325 324 324 324 322 320
224 215 212 212 210 210 213 216 220 218 212 208 206 205 206 206 209 214 214 218 229 251 282 287 291 299 303 310 315 318 316 316 323 324 323 324 327 328 326 323 320 315 312 308 306 303 300 300 304 311 317 321 322 323 323 323 323 323 322 321 320 318
219 212 209 210 209 211 214 217 219 215 210 209 205 203 205 206 209 213 216 221 232 261 283 287 294 300 301 308 312 313 313 313 318 317 316 320 322 323 321 317 315 311 307 304 303 302 299 299 301 306 312 316 318 319 320 321 323 322 320 318 316 315
215 212 210 210 210 214 217 221 221 215 211 211 207 205 207 207 209 214 220 227 244 270 282 288 293 294 294 300 305 306 308 310 313 313 314 317 318 317 314 312 309 307 304 302 302 302 300 299 301 305 309 312 313 314 316 319 320 318 316 315 315 314
217 213 211 213 215 216 219 222 222 218 213 209 205 207 210 209 209 215 222 233 259 280 289 291 289 287 288 294 301 305 306 309 312 313 314 314 314 312 310 308 306 304 303 302 302 302 301 301 301 303 306 309 311 312 314 315 315 315 315 316 316 315
221 215 209 214 218 219 221 219 215 213 208 202 202 207 210 208 206 210 218 235 263 285 292 291 288 285 287 290 297 303 305 309 312 312 313 312 312 310 308 306 304 303 303 303 304 304 302 301 299 301 305 308 310 310 312 312 312 313 314 315 317 317
225 217 210 215 219 222 222 216 210 207 202 200 204 209 210 207 205 208 219 238 264 284 290 290 290 288 289 292 296 302 306 309 310 310 310 310 310 308 307 305 304 303 304 305 305 304 301 300 301 304 306 308 309 310 311 312 312 313 314 315 315 316
231 221 215 218 219 220 217 213 212 205 200 203 207 211 211 208 210 215 226 248 271 281 288 295 298 298 297 298 300 303 306 307 308 307 307 307 307 307 305 304 303 304 305 305 304 302 301 303 305 307 309 310 311 312 313 314 315 315 315 315 315 313
223 215 218 218 213 215 216 215 214 205 202 208 212 213 212 211 215 220 229 253 275 280 286 295 298 298 298 299 301 303 304 304 304 303 304 305 305 304 302 302 303 304 304 303 303 303 305 307 309 311 312 313 314 315 316 317 317 316 316 317 318 318
216 211 221 220 209 211 215 214 209 204 206 212 214 212 214 217 220 224 233 251 271 280 284 288 290 293 295 297 300 301 301 300 300 302 303 304 302 301 301 301 303 303 302 302 304 306 309 311 312 313 313 314 315 316 316 316 315 316 317 319 321 323
220 217 224 223 212 210 215 213 205 205 210 215 216 215 217 220 223 230 239 250 263 276 284 287 289 290 293 296 298 298 298 298 300 302 302 301 300 300 301 302 301 300 300 303 306 309 311 312 313 314 315 315 315 315 316 316 318 319 321 323 325 326
220 221 223 222 216 213 216 215 209 210 213 215 217 220 219 220 227 239 246 249 256 272 285 289 290 290 292 294 295 295 296 298 299 300 300 299 299 300 300 299 298 299 302 307 310 312 313 314 315 316 315 315 316 318 319 321 323 324 325 326 328 328
220 219 217 215 215 214 215 214 213 213 213 212 216 222 223 226 236 247 251 250 256 271 285 288 288 288 289 289 290 292 295 298 299 299 299 298 298 299 299 298 300 304 309 312 314 315 317 317 317 317 317 318 320 322 324 325 327 327 327 328 327 326
231 226 219 214 213 213 214 216 216 214 212 214 219 224 229 235 243 251 254 253 258 271 281 284 284 284 284 285 288 292 295 297 298 298 297 297 298 299 300 301 305 310 313 315 317 318 319 319 318 319 320 323 324 326 327 328 328 329 329 329 329 328
234 231 224 216 213 212 214 217 218 214 213 218 224 228 233 240 248 253 255 256 261 270 277 280 280 281 282 286 290 293 295 295 295 295 296 298 300 300 302 305 309 313 315 317 319 320 320 320 321 323 324 325 327 328 329 330 331 333 332 332 332 333
226 222 218 214 213 213 213 216 216 214 216 221 225 230 235 243 250 254 256 259 264 271 276 278 279 281 284 288 291 292 292 292 293 296 298 299 300 300 303 308 311 314 316 318 321 321 321 323 325 326 326 327 328 330 332 334 335 335 335 335 337 337
Height
3171 3173 3173 3174 3176 3177 3178 3179 3179 3180 3180 3181 3181 3182 3182 3182 3182 3182 3182 3181 3181 3181 3181 3181 3182 3182 3182 3181 3181 3181 3181 3181 3180 3181 3181 3181 3181 3181 3182 3182 3182 3182 3182 3182 3182 3182 3182 3182 3182 3182 3182 3182 3182 3182 3181 3181 3180 3180 3179 3179 3178 3178
3171 3172 3173 3174 3175 3176 3177 3177 3178 3179 3179 3180 3180 3181 3181 3181 3181 3181 3181 3181 3181 3181 3181 3181 3181 3181 3181 3181 3181 3181 3181 3181 3180 3180 3180 3181 3181 3181 3181 3182 3182 3182 3182 3182 3182 3182 3182 3182 3182 3182 3182 3182 3182 3182 3181 3180 3179 3179 3178 3178 3177 3177
3170 3171 3172 3173 3174 3175 3176 3176 3177 3177 3178 3179 3180 3180 3181 3181 3181 3181 3181 3181 3181 3181 3181 3181 3181 3181 3181 3181 3180 3180 3180 3180 3180 3180 3180 3180 3180 3180 3181 3181 3181 3181 3181 3181 3181 3181 3181 3181 3181 3181 3181 3181 3181 3181 3180 3179 3178 3178 3177 3177 3176 3175
3170 3171 3172 3173 3174 3174 3175 3175 3176 3176 3177 3178 3179 3180 3180 3180 3180 3180 3180 3180 3180 3180 3180 3180 3180 3180 3180 3180 3180 3180 3180 3180 3180 3180 3180 3180 3180 3180 3180 3181 3181 3181 3181 3181 3181 3181 3181 3180 3180 3180 3180 3180 3180 3179 3179 3179 3178 3177 3176 3176 3175 3174
3169 3171 3172 3172 3173 3174 3174 3175 3175 3176 3177 3178 3178 3179 3179 3179 3180 3179 3179 3179 3180 3180 3180 3180 3180 3179 3179 3179 3179 3179 3179 3179 3179 3179 3179 3179 3179 3179 3180 3180 3181 3181 3181 3181 3180 3180 3180 3179 3179 3179 3179 3178 3178 3178 3178 3177 3177 3176 3175 3175 3174 3172
3169 3170 3171 3171 3172 3173 3174 3174 3175 3176 3176 3177 3178 3178 3178 3179 3178 3178 3178 3179 3179 3179 3179 3179 3179 3179 3179 3179 3179 3178 3178 3178 3179 3179 3179 3179 3179 3179 3179 3180 3180 3180 3180 3180 3180 3179 3179 3179 3178 3178 3178 3177 3177 3177 3176 3176 3175 3175 3174 3173 3172 3171
3167 3168 3169 3170 3171 3172 3173 3174 3174 3175 3176 3176 3176 3177 3177 3177 3177 3177 3178 3178 3178 3178 3178 3178 3178 3178 3178 3178 3178 3178 3178 3178 3178 3179 3178 3178 3178 3178 3179 3179 3180 3180 3180 3180 3179 3179 3179 3178 3178 3177 3177 3176 3176 3176 3175 3174 3174 3173 3172 3171 3170 3169
3166 3167 3168 3169 3170 3171 3172 3173 3173 3174 3175 3175 3175 3176 3176 3176 3176 3177 3177 3177 3177 3177 3177 3177 3177 3177 3177 3178 3178 3178 3178 3177 3177 3178 3178 3178 3178 3178 3178 3179 3179 3179 3180 3179 3179 3178 3178 3178 3177 3177 3176 3175 3175 3174 3174 3173 3172 3172 3171 3170 3169 3168
3165 3166 3167 3168 3169 3170 3171 3172 3172 3173 3174 3174 3175 3175 3175 3175 3176 3176 3176 3176 3176 3177 3177 3177 3177 3177 3177 3177 3177 3178 3178 3178 3177 3178 3178 3178 3178 3178 3178 3178 3178 3179 3179 3178 3178 3178 3177 3177 3176 3175 3175 3174 3174 3173 3172 3172 3171 3170 3170 3169 3168 3167
3164 3165 3166 3167 3167 3169 3170 3171 3171 3172 3173 3173 3174 3174 3174 3175 3175 3174 3175 3175 3176 3176 3176 3176 3176 3176 3176 3176 3177 3177 3178 3178 3177 3177 3178 3178 3178 3178 3178 3178 3178 3178 3178 3178 3177 3177 3176 3175 3175 3174 3174 3173 3173 3172 3171 3171 3170 3169 3168 3167 3166 3165
3164 3164 3165 3166 3167 3168 3169 3170 3170 3171 3172 3172 3172 3173 3173 3173 3174 3174 3174 3175 3175 3176 3176 3176 3176 3176 3176 3176 3176 3177 3177 3177 3177 3177 3177 3177 3177 3177 3177 3177 3177 3177 3177 3177 3177 3176 3175 3175 3174 3173 3173 3172 3172 3171 3171 3170 3169 3168 3167 3166 3165 3164
3163 3164 3164 3165 3166 3167 3168 3169 3169 3170 3171 3171 3172 3172 3172 3173 3173 3173 3174 3174 3175 3176 3176 3176 3176 3175 3175 3176 3176 3176 3176 3176 3176 3177 3177 3177 3177 3177 3177 3177 3177 3177 3177 3177 3176 3176 3175 3174 3173 3173 3173 3172 3172 3171 3171 3170 3169 3168 3167 3165 3164 3163
3162 3163 3163 3164 3165 3166 3167 3168 3168 3169 3169 3170 3171 3171 3172 3172 3172 3173 3173 3174 3175 3175 3175 3175 3175 3175 3175 3175 3175 3175 3175 3176 3176 3176 3176 3176 3176 3176 3176 3176 3177 3177 3176 3176 3176 3175 3174 3173 3173 3172 3172 3172 3171 3170 3170 3169 3168 3167 3165 3164 3163 3161
3162 3162 3163 3164 3165 3165 3166 3167 3167 3168 3168 3169 3170 3171 3171 3171 3172 3172 3173 3174 3174 3175 3175 3175 3175 3175 3175 3175 3175 3175 3175 3175 3176 3176 3176 3176 3176 3176 3176 3176 3176 3176 3176 3176 3175 3174 3173 3172 3172 3172 3171 3171 3170 3169 3168 3167 3166 3165 3164 3162 3161 3160
3161 3161 3162 3163 3164 3164 3165 3165 3166 3167 3168 3169 3169 3170 3170 3170 3171 3172 3173 3173 3174 3174 3174 3174 3175 3175 3174 3175 3175 3175 3175 3175 3175 3176 3176 3176 3176 3176 3175 3175 3175 3175 3175 3175 3174 3173 3172 3171 3171 3171 3170 3169 3169 3168 3167 3166 3165 3163 3162 3161 3160 3159
3160 3160 3161 3162 3163 3163 3164 3164 3165 3166 3167 3168 3169 3169 3170 3170 3171 3172 3173 3173 3173 3174 3174 3174 3175 3175 3174 3174 3175 3175 3175 3175 3175 3175 3175 3175 3175 3175 3175 3175 3174 3174 3174 3174 3173 3173 3172 3171 3170 3170 3170 3169 3168 3167 3166 3165 3164 3163 3162 3161 3159 3158
3158 3159 3160 3161 3162 3162 3162 3163 3164 3165 3166 3167 3168 3169 3169 3170 3171 3172 3172 3173 3173 3173 3174 3174 3175 3175 3174 3174 3174 3175 3175 3175 3175 3175 3175 3175 3175 3175 3174 3174 3174 3174 3173 3173 3173 3172 3172 3171 3170 3170 3169 3169 3168 3167 3166 3165 3164 3162 3161 3160 3158 3156
3157 3158 3159 3160 3160 3161 3161 3162 3163 3164 3165 3166 3167 3168 3169 3170 3171 3171 3172 3172 3172 3173 3173 3174 3174 3174 3174 3174 3174 3175 3175 3175 3175 3175 3174 3174 3174 3174 3174 3174 3174 3173 3173 3173 3173 3172 3171 3170 3170 3170 3169 3169 3168 3167 3166 3164 3163 3161 3160 3158 3157 3155
3155 3156 3157 3158 3159 3160 3161 3161 3162 3163 3164 3165 3167 3168 3169 3170 3170 3170 3171 3171 3171 3172 3173 3174 3174 3174 3174 3173 3174 3174 3174 3175 3174 3174 3174 3173 3173 3173 3173 3173 3173 3173 3173 3173 3172 3172 3171 3170 3169 3169 3168 3168 3167 3166 3164 3163 3162 3160 3159 3157 3155 3153
3152 3154 3155 3157 3158 3159 3160 3161 3161 3162 3164 3165 3167 3168 3169 3169 3169 3170 3170 3170 3171 3172 3173 3173 3173 3173 3173 3173 3174 3174 3174 3174 3174 3174 3173 3173 3173 3173 3173 3173 3173 3173 3173 3173 3172 3172 3170 3169 3169 3168 3168 3167 3166 3165 3164 3162 3160 3159 3157 3156 3154 3152
3151 3153 3155 3156 3157 3158 3159 3160 3161 3162 3163 3165 3166 3167 3168 3168 3169 3169 3169 3170 3171 3171 3172 3173 3173 3173 3173 3173 3173 3174 3173 3173 3173 3173 3173 3173 3173 3173 3173 3173 3173 3172 3172 3172 3172 3171 3170 3169 3168 3168 3167 3166 3165 3164 3162 3161 3159 3157 3155 3154 3152 3150
3150 3152 3153 3155 3156 3157 3158 3159 3160 3161 3163 3164 3165 3166 3167 3167 3168 3168 3168 3169 3170 3171 3172 3172 3172 3172 3173 3173 3173 3173 3173 3172 3172 3173 3173 3173 3173 3173 3172 3172 3172 3172 3172 3172 3171 3171 3170 3168 3167 3167 3166 3165 3164 3162 3161 3160 3158 3156 3154 3152 3150 3148
3149 3150 3152 3154 3155 3156 3158 3159 3160 3161 3162 3163 3164 3165 3166 3167 3167 3167 3168 3169 3169 3170 3171 3171 3172 3172 3172 3172 3172 3172 3172 3172 3172 3172 3173 3173 3173 3172 3172 3172 3171 3171 3171 3171 3170 3170 3169 3168 3167 3166 3164 3163 3162 3161 3159 3158 3156 3154 3152 3150 3149 3146
3148 3149 3151 3153 3154 3156 3157 3158 3159 3160 3161 3162 3163 3164 3165 3166 3167 3167 3168 3169 3169 3170 3170 3171 3171 3171 3171 3172 3172 3172 3172 3172 3172 3172 3172 3172 3172 3172 3171 3171 3170 3170 3170 3170 3169 3169 3168 3167 3166 3165 3164 3162 3161 3160 3158 3156 3154 3152 3150 3149 3147 3145
3148 3149 3150 3152 3154 3155 3156 3157 3158 3159 3160 3161 3162 3163 3164 3165 3166 3167 3168 3168 3169 3169 3170 3170 3170 3170 3171 3171 3171 3172 3172 3172 3172 3172 3172 3172 3171 3171 3171 3170 3170 3169 3169 3168 3168 3167 3167 3166 3165 3164 3162 3161 3160 3159 3157 3155 3153 3151 3149 3147 3145 3143
3147 3148 3150 3152 3153 3154 3154 3156 3157 3158 3159 3160 3162 3163 3164 3165 3166 3167 3167 3168 3168 3169 3169 3170 3170 3170 3170 3171 3171 3171 3171 3171 3171 3171 3171 3171 3171 3170 3170 3169 3169 3168 3167 3167 3166 3166 3165 3164 3163 3162 3161 3160 3159 3157 3156 3154 3153 3151 3148 3145 3143 3141
3145 3147 3150 3151 3151 3152 3153 3155 3156 3157 3158 3160 3161 3162 3163 3164 3165 3166 3167 3167 3168 3168 3169 3169 3169 3169 3170 3170 3171 3171 3171 3171 3171 3171 3170 3170 3170 3170 3169 3168 3167 3166 3166 3165 3164 3164 3163 3162 3161 3161 3159 3158 3157 3155 3154 3153 3151 3150 3148 3145 3142 3139
3145 3148 3150 3150 3150 3151 3153 3154 3155 3156 3157 3158 3160 3161 3162 3163 3164 3165 3166 3167 3167 3168 3168 3168 3168 3169 3169 3169 3170 3170 3170 3170 3170 3170 3169 3169 3169 3168 3167 3166 3165 3165 3164 3163 3162 3162 3161 3160 3160 3159 3157 3156 3155 3154 3152 3151 3149 3148 3146 3145 3143 3140
3146 3148 3148 3148 3149 3150 3152 3153 3153 3153 3155 3157 3158 3160 3162 3163 3164 3164 3165 3166 3167 3167 3167 3167 3168 3168 3168 3169 3169 3169 3169 3169 3169 3169 3168 3168 3167 3166 3165 3165 3164 3163 3162 3161 3161 3160 3159 3158 3157 3156 3155 3154 3153 3152 3150 3149 3147 3145 3144 3142 3141 3140
3144 3146 3146 3146 3147 3149 3150 3151 3151 3153 3154 3156 3158 3159 3161 3162 3163 3163 3164 3165 3166 3166 3167 3167 3167 3168 3168 3168 3168 3168 3168 3168 3168 3167 3167 3166 3166 3165 3164 3163 3162 3161 3160 3160 3159 3158 3157 3156 3156 3155 3153 3152 3151 3149 3148 3146 3145 3143 3142 3140 3138 3137
3141 3144 3145 3144 3145 3147 3149 3149 3151 3152 3154 3155 3157 3158 3160 3161 3162 3163 3164 3164 3165 3166 3166 3166 3167 3167 3167 3167 3167 3167 3167 3167 3166 3166 3165 3164 3164 3163 3162 3161 3161 3160 3159 3158 3157 3156 3155 3155 3154 3153 3152 3151 3149 3148 3146 3145 3143 3141 3140 3138 3136 3135
3140 3143 3143 3143 3144 3145 3147 3148 3150 3151 3153 3155 3156 3158 3160 3160 3161 3162 3163 3164 3164 3165 3165 3166 3166 3166 3166 3166 3166 3165 3165 3165 3164 3164 3163 3163 3162 3161 3161 3160 3159 3158 3157 3156 3155 3154 3154 3153 3152 3151 3150 3149 3147 3146 3144 3143 3141 3139 3138 3136 3134 3132
3139 3140 3141 3142 3142 3144 3146 3147 3149 3150 3152 3154 3156 3157 3159 3160 3160 3161 3162 3163 3163 3164 3164 3164 3164 3164 3164 3164 3164 3164 3163 3163 3163 3162 3162 3161 3160 3160 3159 3158 3157 3156 3155 3154 3153 3153 3152 3151 3150 3149 3148 3147 3145 3144 3142 3140 3139 3137 3135 3134 3132 3131
3138 3139 3139 3140 3142 3143 3145 3146 3148 3149 3151 3153 3155 3156 3157 3158 3159 3160 3161 3161 3162 3163 3163 3163 3163 3163 3163 3162 3162 3162 3162 3161 3161 3160 3160 3159 3159 3158 3157 3156 3155 3154 3153 3152 3152 3151 3150 3149 3148 3147 3146 3144 3143 3141 3140 3138 3137 3135 3133 3132 3130 3129
3135 3136 3137 3138 3141 3143 3144 3145 3147 3148 3151 3153 3154 3155 3156 3157 3158 3158 3159 3160 3161 3161 3162 3162 3161 3161 3161 3161 3160 3160 3160 3160 3159 3159 3158 3157 3157 3156 3155 3154 3153 3152 3151 3150 3150 3149 3148 3147 3146 3145 3143 3142 3140 3139 3138 3136 3135 3133 3131 3129 3127 3125
3133 3134 3136 3138 3140 3142 3144 3145 3146 3148 3151 3152 3153 3154 3155 3156 3156 3157 3158 3158 3159 3160 3160 3160 3160 3159 3159 3158 3158 3158 3158 3158 3158 3157 3157 3156 3155 3154 3153 3152 3152 3151 3150 3149 3148 3147 3146 3145 3144 3143 3141 3140 3138 3137 3135 3134 3133 3131 3128 3126 3124 3122
3133 3134 3135 3137 3139 3141 3143 3144 3146 3148 3149 3150 3151 3152 3153 3154 3155 3156 3156 3157 3158 3158 3158 3158 3158 3157 3157 3156 3156 3156 3156 3157 3156 3156 3155 3154 3153 3153 3152 3151 3150 3149 3148 3147 3147 3146 3145 3143 3142 3140 3139 3138 3136 3135 3134 3132 3130 3128 3126 3123 3121 3119